EW4210 Weather Reports


Display with metric or nautical units.
time (UTC)temp
F
wind
direction
speed
MPH
gust
MPH
rain 1hr
in
rain 24hr
in
rain mn
in
humidity
%
barometer
mb
20260505021504 71 150 1.0 3.0 0.00 0.00 0.00 59 1007.2
20260505020042 71 183 0.0 2.0 0.00 0.00 0.00 59 1007.0
20260505014526 72 153 1.0 3.0 0.00 0.00 0.00 59 1007.0
20260505013006 72 61 0.0 2.0 0.00 0.00 0.00 59 1006.7
20260505011551 73 282 0.0 1.0 0.00 0.00 0.00 58 1006.7
20260505010032 73 271 1.0 3.0 0.00 0.00 0.00 57 1006.7
20260505004533 73 244 0.0 2.0 0.00 0.00 0.00 56 1006.7
20260505003050 74 202 0.0 2.0 0.00 0.00 0.00 56 1006.6
20260505001538 74 269 0.0 2.0 0.00 0.00 0.00 55 1006.6
20260505000035 75 182 1.0 4.0 0.00 0.00 0.00 54 1006.6
20260504234506 75 242 0.0 4.0 0.00 0.00 0.00 54 1006.7
20260504233056 75 157 1.0 5.0 0.00 0.00 0.00 53 1006.8
20260504231535 76 277 1.0 7.0 0.00 0.00 0.00 51 1007.0
20260504230014 76 84 0.0 3.0 0.00 0.00 0.00 53 1007.3
20260504224552 76 265 0.0 7.0 0.00 0.00 0.00 50 1007.4
20260504223035 77 288 2.0 7.0 0.00 0.00 0.00 49 1007.4
20260504221517 77 274 2.0 9.0 0.00 0.00 0.00 48 1007.4
20260504220006 78 67 3.0 6.0 0.00 0.00 0.00 49 1007.7
20260504214550 78 175 0.0 6.0 0.00 0.00 0.00 50 1007.8
20260504213025 77 128 1.0 5.0 0.00 0.00 0.00 49 1007.7
20260504211513 78 242 2.0 6.0 0.00 0.00 0.00 48 1008.0
20260504210051 78 238 2.0 7.0 0.00 0.00 0.00 46 1008.1
20260504204527 79 306 2.0 7.0 0.00 0.00 0.00 46 1008.3
20260504203008 79 240 3.0 7.0 0.00 0.00 0.00 45 1008.4
20260504201552 78 323 2.0 7.0 0.00 0.00 0.00 47 1008.8
20260504200035 79 282 3.0 8.0 0.00 0.00 0.00 46 1009.1
20260504194513 77 5 2.0 8.0 0.00 0.00 0.00 46 1009.3
20260504193051 78 289 4.0 9.0 0.00 0.00 0.00 46 1009.4
20260504191531 78 289 3.0 8.0 0.00 0.00 0.00 47 1009.8
20260504190016 78 254 3.0 9.0 0.00 0.00 0.00 45 1009.8
20260504184553 78 303 3.0 9.0 0.00 0.00 0.00 46 1009.8
20260504183035 78 24 1.0 6.0 0.00 0.00 0.00 48 1010.2
20260504181517 77 45 2.0 9.0 0.00 0.00 0.00 47 1010.0
20260504180057 78 286 3.0 7.0 0.00 0.00 0.00 46 1010.2
20260504174535 77 265 2.0 7.0 0.00 0.00 0.00 46 1010.3
20260504173011 77 272 3.0 9.0 0.00 0.00 0.00 46 1010.6
20260504171549 76 295 2.0 11.0 0.00 0.00 0.00 48 1010.8
20260504081512 61 274 0.0 0.0 0.00 0.00 0.00 74 1012.2
20260504050014 68 162 0.0 0.0 0.00 0.00 0.00 61 1013.3
20260504044549 68 156 0.0 2.0 0.00 0.00 0.00 61 1013.3
20260504043029 69 277 0.0 2.0 0.00 0.00 0.00 61 1013.3
20260504041513 69 293 0.0 2.0 0.00 0.00 0.00 60 1013.4
20260504040057 69 266 0.0 3.0 0.00 0.00 0.00 60 1013.4
20260504034530 69 336 0.0 1.0 0.00 0.00 0.00 60 1013.6
20260504033012 70 274 0.0 2.0 0.00 0.00 0.00 60 1013.7
20260504031549 69 257 0.0 2.0 0.00 0.00 0.00 59 1013.6
20260504030029 70 217 0.0 2.0 0.00 0.00 0.00 59 1013.6
20260504024511 70 277 0.0 1.0 0.00 0.00 0.00 58 1013.5
20260504023052 71 250 0.0 2.0 0.00 0.00 0.00 58 1013.4